{"data":{"norad_id":66192,"epoch":"2026-09-20T21:57:08.634528Z","epoch_age_seconds":64542,"freshness":"FRESH","line1":"1 66192U 25243R   26263.91468327  .00008105  00000+0  25069-3 0  9997","line2":"2 66192  53.1577  55.6142 0001083  95.2013 264.9114 15.34406773 50584","mean_motion":15.34406773,"eccentricity":0.0001083,"inclination_deg":53.1577,"raan_deg":55.6142,"arg_perigee_deg":95.2013,"mean_anomaly_deg":264.9114,"bstar":0.00025069,"rev_number":5058,"period_min":93.847343829471,"perigee_km":461.94224867995,"apogee_km":463.42397031567,"semimajor_km":6840.8201094978,"source":"CELESTRAK","updated_at":"2026-09-21T09:00:35.836535Z"}}